Location: Belfast
(54.5830°N, 5.9330°W)
Time: 07:44:53
(UTC+00:00)

ISS - Pass Details

Date: 13 July 2025
Orbit: 414 x 429 km, 51.6° (Epoch: 6 February)

Event Time Altitude Azimuth Distance (km) Brightness Sun altitude
Rises 02:24:05 0° 275° (W) 2,396 0.0 -12.7°
Reaches altitude 10° 02:26:49 10° 252° (WSW) 1,537 -1.2 -12.6°
Enters shadow 02:27:36 13° 240° (WSW) 1,372 -1.6 -12.6°
